Flag for Morocco Weather past 2 weeks in Casablanca, Morocco

Now
72 °F

Clear.


Feels Like: 69 °F
Forecast: 71 / 81 °F
Wind: 5 mph from South

Location: Casablanca Airport

Current Time: Oct 21, 2014 at 10:45:07 PM

Latest Report: Oct 21, 2014 at 10:00 PM


Visibility: 10 mi

Pressure: 30.12 "Hg

Humidity: 88%

Dew point: 68 °F

Location of CasablancaLocation

Historic Weather in Casablanca — Graph

°F

Casablanca temperature yesterday

Maximum temperature yesterday: 95 °F (at 1:00 PM)
Minimum temperature yesterday: 73 °F (at 1:00 AM)
Average temperature yesterday: 80 °F

Past Weeks' High & Low Weather Summary

 TemperatureHumidityPressure
High95 °F (Oct 20, 1:00 PM)100% (Oct 14, 7:00 AM)30.12 "Hg (Oct 14, 7:00 AM)
Low59 °F (Oct 13, 6:00 AM)24% (Oct 20, 11:00 AM)29.80 "Hg (Oct 11, 4:00 PM)
Average72 °F76%29.97 "Hg
* Reported Oct 6 9:00 PM — Oct 21 9:00 PM, Casablanca, Weather by CustomWeather, © 2014

Note: Actual official high and low records may vary slightly from our data, if they occured in-between our weather recording intervals... More about our weather records

Advertising

Casablanca weather history for previous 24 hours

 ConditionsComfort  
Time TempWeatherWind HumidityBarometerVisibility
9:00 PM
Oct 21
72 °FClear.3 mph88%30.12 "Hg10 mi
8:00 PM72 °FClear.5 mph88%30.12 "Hg10 mi
7:00 PM73 °FClear.5 mph83%30.09 "Hg3 mi
6:00 PM73 °FClear.5 mph78%30.09 "Hg4 mi
5:00 PM81 °FClear.7 mph62%30.09 "Hg4 mi
4:00 PM84 °FClear.5 mph40%30.07 "Hg4 mi
3:00 PM84 °FClear.7 mph45%30.09 "Hg4 mi
2:00 PM84 °FHaze.6 mph43%30.09 "Hg2 mi
1:00 PM84 °FHaze.6 mph37%30.09 "Hg2 mi
12:00 PM86 °FHaze.2 mph33%30.09 "Hg2 mi
11:00 AM82 °FClear.2 mph32%30.09 "Hg3 mi
10:00 AM77 °FClear.No wind39%30.09 "Hg3 mi
9:00 AM70 °FClear.2 mph53%30.04 "Hg3 mi
8:00 AM64 °FClear.No wind56%30.04 "Hg3 mi
7:00 AM66 °FSunny.2 mph56%30.04 "Hg10 mi
6:00 AM68 °FClear.No wind56%30.04 "Hg10 mi
3:00 AM70 °FClear.7 mph73%30.04 "Hg10 mi
2:00 AM70 °FClear.3 mph78%30.04 "Hg10 mi
1:00 AM70 °FClear.2 mph78%30.07 "Hg10 mi
12:00 AM72 °FClear.2 mph78%30.04 "Hg10 mi
11:00 PM
Oct 20
73 °FClear.2 mph78%30.04 "Hg10 mi
10:00 PM73 °FClear.2 mph78%30.04 "Hg10 mi
Weather by CustomWeather, © 2014

See weather overviewHow to use our weather pages